TimeCDT,TemperatureF,Dew PointF,Humidity,Sea Level PressureIn,VisibilityMPH,Wind Direction,Wind SpeedMPH,Gust SpeedMPH,PrecipitationIn,Events,Conditions,WindDirDegrees,DateUTC
12:53 AM,78.1,62.1,58,29.93,10.0,South,9.2,-,N/A,,Clear,190,2013-08-27 05:53:00
1:53 AM,75.9,62.1,62,29.93,10.0,SSW,8.1,-,N/A,,Clear,200,2013-08-27 06:53:00
2:53 AM,73.9,62.1,66,29.94,10.0,South,9.2,-,N/A,,Clear,190,2013-08-27 07:53:00
3:53 AM,73.0,62.1,68,29.94,10.0,South,10.4,-,N/A,,Clear,190,2013-08-27 08:53:00
4:53 AM,72.0,62.1,71,29.93,10.0,South,8.1,-,N/A,,Clear,190,2013-08-27 09:53:00
5:53 AM,71.1,61.0,70,29.94,10.0,South,9.2,-,N/A,,Clear,190,2013-08-27 10:53:00
6:53 AM,70.0,61.0,73,29.94,10.0,South,6.9,-,N/A,,Clear,190,2013-08-27 11:53:00
7:53 AM,71.1,61.0,70,29.94,10.0,South,8.1,-,N/A,,Clear,190,2013-08-27 12:53:00
8:53 AM,73.9,61.0,64,29.95,10.0,SSW,9.2,-,N/A,,Clear,210,2013-08-27 13:53:00
9:53 AM,78.1,62.1,58,29.94,10.0,SSW,11.5,-,N/A,,Clear,210,2013-08-27 14:53:00
10:53 AM,82.0,62.1,51,29.94,10.0,SSW,9.2,18.4,N/A,,Clear,210,2013-08-27 15:53:00
11:53 AM,84.9,63.0,48,29.94,10.0,SSW,11.5,-,N/A,,Clear,200,2013-08-27 16:53:00
12:53 PM,88.0,63.0,43,29.93,10.0,South,10.4,17.3,N/A,,Clear,190,2013-08-27 17:53:00
1:53 PM,91.0,61.0,36,29.91,10.0,SSW,11.5,19.6,N/A,,Clear,200,2013-08-27 18:53:00
2:53 PM,93.9,61.0,33,29.90,10.0,South,10.4,-,N/A,,Clear,190,2013-08-27 19:53:00
3:53 PM,95.0,59.0,30,29.89,10.0,South,9.2,-,N/A,,Clear,180,2013-08-27 20:53:00
4:53 PM,95.0,57.9,29,29.88,10.0,South,8.1,-,N/A,,Clear,180,2013-08-27 21:53:00
5:53 PM,93.9,60.1,32,29.88,10.0,South,10.4,-,N/A,,Clear,170,2013-08-27 22:53:00
6:53 PM,90.0,60.1,37,29.88,10.0,South,9.2,-,N/A,,Clear,180,2013-08-27 23:53:00
7:53 PM,86.0,60.1,41,29.88,10.0,South,8.1,-,N/A,,Clear,170,2013-08-28 00:53:00
8:53 PM,82.9,59.0,44,29.89,10.0,South,9.2,-,N/A,,Clear,170,2013-08-28 01:53:00
9:53 PM,79.0,59.0,50,29.90,10.0,South,9.2,-,N/A,,Clear,180,2013-08-28 02:53:00
10:53 PM,75.9,57.9,54,29.91,10.0,South,8.1,-,N/A,,Clear,180,2013-08-28 03:53:00
11:53 PM,75.9,57.9,54,29.91,10.0,South,8.1,-,N/A,,Clear,190,2013-08-28 04:53:00